This is the latest recevied weather packets stored in our database for station/object DK4MDA-13. If no packets are shown the sender has not sent any weather packets the latest 10 day(s).
| Time | Temp. | Humidity | Pressure | Rain* | Wind** | Luminosity | Snow |
|---|---|---|---|---|---|---|---|
| 1777895533 | 21.67° C | 59% | 1012.6 hPa | 0 mm | - | - | - |
| 1777895231 | 21.67° C | 55% | 1012.6 hPa | 0 mm | - | - | - |
| 1777894931 | 21.67° C | 55% | 1012.6 hPa | 0 mm | - | - | - |
| 1777894631 | 21.67° C | 55% | 1012.7 hPa | 0 mm | - | - | - |
| 1777894331 | 21.11° C | 56% | 1012.7 hPa | 0 mm | - | - | - |
| 1777894031 | 21.11° C | 56% | 1012.8 hPa | 0 mm | - | - | - |
| 1777893731 | 21.11° C | 59% | 1012.7 hPa | 0 mm | - | - | - |
| 1777893431 | 20.56° C | 60% | 1012.7 hPa | 0 mm | - | - | - |
| 1777893133 | 20.56° C | 61% | 1012.9 hPa | 0 mm | - | - | - |
| 1777892831 | 20° C | 61% | 1012.8 hPa | 0 mm | - | - | - |
| 1777892531 | 20° C | 62% | 1012.8 hPa | 0 mm | - | - | - |
| 1777892233 | 20° C | 62% | 1012.8 hPa | 0 mm | - | - | - |
| 1777891931 | 20° C | 61% | 1012.8 hPa | 0 mm | - | - | - |
| 1777891633 | 20.56° C | 62% | 1012.8 hPa | 0 mm | - | - | - |
| 1777891331 | 20° C | 63% | 1013 hPa | 0 mm | - | - | - |
| 1777891031 | 20° C | 62% | 1012.9 hPa | 0 mm | - | - | - |
| 1777890731 | 20° C | 61% | 1013 hPa | 0 mm | - | - | - |
| 1777890431 | 20° C | 64% | 1013.1 hPa | 0 mm | - | - | - |
| 1777890133 | 20° C | 61% | 1013 hPa | 0 mm | - | - | - |
| 1777889531 | 20° C | 63% | 1013.2 hPa | 0 mm | - | - | - |
| 1777889231 | 19.44° C | 64% | 1013.3 hPa | 0 mm | - | - | - |
| 1777888931 | 19.44° C | 66% | 1013.3 hPa | 0 mm | - | - | - |
| 1777888631 | 18.89° C | 64% | 1013.3 hPa | 0 mm | - | - | - |
| 1777888331 | 18.89° C | 66% | 1013.4 hPa | 0 mm | - | - | - |
| 1777888031 | 18.89° C | 65% | 1013.6 hPa | 0 mm | - | - | - |
* Rain latest hour (hover to see other rain measurements)
** Current wind speed in m/s (hover to see current wind gust speed)